Weather History for KC75 - January, 2013

Change the Weather History Date:

Friday, January 11, 2013

  Actual Average (KPIA) Record (KPIA)
Temperature  
Mean Temperature 49 °F 25 °F  
Max Temperature 55 °F 33 °F 62 °F (1890)
Min Temperature 43 °F 17 °F -19 °F (1918)
Degree Days  
Heating Degree Days 16 40  
Month to date heating degree days 440  
Since 1 July heating degree days 2718  
Cooling Degree Days 0 0  
Month to date cooling degree days 0  
Year to date cooling degree days 0  
Moisture  
Dew Point 47 °F    
Average Humidity 89    
Maximum Humidity 100    
Minimum Humidity 77    
Precipitation  
Precipitation 0.46 in 0.06 in 1.12 in (1916)
Month to date precipitation 0.70  
Year to date precipitation 0.70  
Snow  
Snow 0.00 in 0.20 in 5.60 in (2011)
Month to date snowfall 2.5  
Since 1 July snowfall 10.7  
Snow Depth -    
Sea Level Pressure  
Sea Level Pressure 29.73 in    
Wind  
Wind Speed 9 mph (South)    
Max Wind Speed 23 mph    
Max Gust Speed 31 mph    
Visibility 8 miles    
Events Rain    
T = Trace of Precipitation, MM = Missing Value Source: NWS Daily Summary

Daily Weather History Graph

Daily Weather History Graph

Search for Another Location

Airport or City:

Trip Planner

Search our weather history database for the weather conditions in past years. The results will help you decide how hot, cold, wet, or windy it might be!

Date:

Astronomy

Jan. 11, 2013 Rise Set
Actual Time 7:21 AM CST 4:49 PM CST
Civil Twilight 6:51 AM CST 5:20 PM CST
Nautical Twilight 6:17 AM CST 5:54 PM CST
Astronomical Twilight 5:43 AM CST 6:27 PM CST
Moon 6:54 AM CST (1/11) 5:08 PM CST (1/11)
Length of Visible Light 10h 29m
Length of Day
9h 28m
Waning Crescent, 0% of the Moon is Illuminated
Jan 11
Waning Crescent
Jan 11
New
Jan 18
First Quarter
Jan 26
Full
Feb 3
Last Quarter

Hourly Weather History & Observations

Time (CST) Temp. Windchill Dew Point Humidity Pressure Visibility Wind Dir Wind Speed Gust Speed Precip Events Conditions
12:15 AM 46.0 °F 43.1 °F 46.0 °F 100% 29.79 in 3.0 mi SSE 5.8 mph - 0.06 in Rain Heavy Rain
12:35 AM 43.3 °F - 43.3 °F 100% 29.80 in 3.0 mi Calm Calm - 0.22 in Rain Heavy Rain
12:55 AM 43.9 °F 42.3 °F 43.9 °F 100% 29.78 in 2.0 mi ESE 3.5 mph - 0.27 in Rain Rain
1:15 AM 45.9 °F 44.6 °F 45.9 °F 100% 29.78 in 5.0 mi SE 3.5 mph - 0.02 in Rain Light Rain
1:35 AM 46.2 °F - 46.2 °F 100% 29.78 in 2.0 mi Calm Calm - 0.09 in Rain Rain
1:55 AM 49.6 °F - 49.6 °F 100% 29.77 in 5.0 mi SSE 4.6 mph - 0.15 in Rain Rain
2:15 AM 50.7 °F - 50.4 °F 99% 29.72 in 7.0 mi East 10.4 mph - 0.02 in Rain Light Rain
2:35 AM 50.9 °F - 50.2 °F 97% 29.68 in 10.0 mi East 13.8 mph 21.9 mph 0.03 in Rain Light Rain
2:55 AM 50.7 °F - 49.6 °F 96% 29.66 in 10.0 mi East 10.4 mph 20.7 mph 0.03 in   Overcast
3:15 AM 50.4 °F - 49.5 °F 97% 29.71 in 10.0 mi South 11.5 mph 16.1 mph N/A   Overcast
3:35 AM 51.1 °F - 50.4 °F 97% 29.71 in 10.0 mi South 9.2 mph 17.3 mph N/A   Overcast
3:55 AM 50.0 °F - 49.5 °F 98% 29.71 in 7.0 mi South 3.5 mph - N/A   Overcast
4:35 AM 50.0 °F - 50.0 °F 100% 29.69 in 1.5 mi Calm Calm - N/A   Heavy Drizzle
4:55 AM 50.0 °F - 50.0 °F 100% 29.70 in 1.2 mi SSW 5.8 mph - N/A   Overcast
5:15 AM 50.4 °F - 50.4 °F 100% 29.70 in 7.0 mi SSW 6.9 mph - N/A   Overcast
5:35 AM 50.9 °F - 49.6 °F 95% 29.70 in 10.0 mi SSW 4.6 mph - N/A   Overcast
5:55 AM 50.5 °F - 48.9 °F 94% 29.72 in 10.0 mi SW 16.1 mph 19.6 mph N/A   Overcast
6:15 AM 47.7 °F - 46.2 °F 95% 29.75 in 10.0 mi SW 10.4 mph 19.6 mph N/A   Overcast
6:35 AM 46.4 °F 41.9 °F 46.4 °F 100% 29.74 in 10.0 mi SSW 9.2 mph - N/A   Overcast
6:55 AM 46.4 °F 40.7 °F 45.1 °F 95% 29.75 in 10.0 mi SW 12.7 mph 18.4 mph N/A   Overcast
7:15 AM 45.7 °F 41.0 °F 44.8 °F 97% 29.76 in 7.0 mi SW 9.2 mph - N/A   Overcast
7:35 AM 45.7 °F 40.6 °F 44.8 °F 97% 29.78 in 7.0 mi SW 10.4 mph 16.1 mph N/A   Overcast
7:55 AM 45.7 °F 42.7 °F 45.0 °F 97% 29.78 in 4.0 mi SW 5.8 mph - N/A   Overcast
8:15 AM 45.5 °F 40.3 °F 45.0 °F 98% 29.79 in 3.0 mi SSW 10.4 mph - N/A   Overcast
8:35 AM 45.7 °F 42.7 °F 45.5 °F 99% 29.79 in 2.0 mi SSW 5.8 mph - N/A   Overcast
8:55 AM 45.5 °F 41.8 °F 45.5 °F 100% 29.79 in 1.2 mi SSW 6.9 mph - N/A   Overcast
9:15 AM 45.9 °F 42.9 °F 45.7 °F 99% 29.80 in 2.0 mi SSW 5.8 mph - N/A   Overcast
9:35 AM 46.4 °F 45.2 °F 46.0 °F 99% 29.80 in 1.2 mi South 3.5 mph - N/A   Overcast
9:55 AM 46.6 °F - 46.4 °F 99% 29.80 in 1.5 mi South 6.9 mph - N/A   Overcast
10:15 AM 46.8 °F - 46.4 °F 99% 29.81 in 2.0 mi South 10.4 mph - N/A   Overcast
10:35 AM 46.6 °F - 46.0 °F 98% 29.80 in 2.0 mi South 9.2 mph 16.1 mph N/A   Overcast
10:55 AM 47.7 °F - 46.4 °F 95% 29.78 in 7.0 mi South 9.2 mph - N/A   Overcast
11:15 AM 48.2 °F - 46.6 °F 94% 29.78 in 5.0 mi South 6.9 mph - N/A   Overcast
11:35 AM 48.2 °F - 46.9 °F 95% 29.77 in 5.0 mi South 9.2 mph - N/A   Overcast
11:55 AM 49.1 °F - 47.3 °F 93% 29.76 in 7.0 mi South 8.1 mph - N/A   Overcast
12:15 PM 50.7 °F - 48.0 °F 90% 29.75 in 7.0 mi South 8.1 mph - N/A   Overcast
12:35 PM 52.0 °F - 48.0 °F 86% 29.75 in 10.0 mi South 15.0 mph 24.2 mph N/A   Overcast
12:55 PM 51.1 °F - 47.3 °F 87% 29.75 in 10.0 mi South 12.7 mph 18.4 mph N/A   Overcast
1:15 PM 51.3 °F - 47.5 °F 87% 29.74 in 10.0 mi South 16.1 mph 21.9 mph N/A   Overcast
1:35 PM 52.3 °F - 47.7 °F 84% 29.74 in 10.0 mi South 13.8 mph 20.7 mph N/A   Overcast
1:55 PM 53.6 °F - 48.2 °F 82% 29.73 in 10.0 mi South 15.0 mph 19.6 mph N/A   Mostly Cloudy
2:15 PM 54.5 °F - 47.8 °F 78% 29.71 in 10.0 mi SSE 13.8 mph - N/A   Scattered Clouds
2:35 PM 54.1 °F - 48.2 °F 80% 29.72 in 10.0 mi SSE 12.7 mph 17.3 mph N/A   Clear
2:55 PM 54.1 °F - 48.6 °F 81% 29.72 in 10.0 mi SSE 11.5 mph 17.3 mph N/A   Clear
3:15 PM 54.0 °F - 48.6 °F 82% 29.71 in 10.0 mi SSE 10.4 mph - N/A   Clear
3:35 PM 54.5 °F - 48.6 °F 80% 29.71 in 10.0 mi SSE 8.1 mph - N/A   Clear
3:55 PM 55.0 °F - 48.7 °F 79% 29.70 in 10.0 mi SSE 11.5 mph 20.7 mph N/A   Scattered Clouds
4:15 PM 54.5 °F - 48.6 °F 80% 29.70 in 10.0 mi SSE 12.7 mph 20.7 mph N/A   Scattered Clouds
4:35 PM 53.8 °F - 48.4 °F 82% 29.69 in 10.0 mi SSE 16.1 mph 24.2 mph N/A   Clear
4:55 PM 53.2 °F - 48.2 °F 83% 29.68 in 10.0 mi SSE 16.1 mph 23.0 mph N/A   Clear
5:15 PM 52.9 °F - 48.0 °F 84% 29.69 in 10.0 mi SSE 11.5 mph 18.4 mph N/A   Clear
5:35 PM 53.1 °F - 48.0 °F 83% 29.71 in 10.0 mi SSE 12.7 mph 23.0 mph N/A   Clear
5:55 PM 53.4 °F - 47.8 °F 81% 29.71 in 10.0 mi SSE 13.8 mph 19.6 mph N/A   Clear
6:15 PM 53.1 °F - 47.7 °F 82% 29.70 in 10.0 mi SSE 13.8 mph - N/A   Clear
6:35 PM 52.7 °F - 47.7 °F 83% 29.71 in 10.0 mi South 17.3 mph 24.2 mph N/A   Scattered Clouds
6:55 PM 52.9 °F - 47.7 °F 82% 29.70 in 10.0 mi South 15.0 mph 21.9 mph N/A   Scattered Clouds
7:15 PM 52.9 °F - 47.7 °F 82% 29.69 in 10.0 mi SSE 15.0 mph 24.2 mph N/A   Scattered Clouds
7:35 PM 53.2 °F - 47.5 °F 81% 29.69 in 10.0 mi South 16.1 mph 27.6 mph N/A   Clear
7:55 PM 53.4 °F - 47.5 °F 80% 29.70 in 10.0 mi South 16.1 mph 26.5 mph N/A   Clear
8:15 PM 53.1 °F - 47.3 °F 81% 29.69 in 10.0 mi South 17.3 mph 23.0 mph N/A   Clear
8:35 PM 53.4 °F - 47.3 °F 80% 29.68 in 10.0 mi South 16.1 mph 21.9 mph N/A   Clear
8:55 PM 53.6 °F - 47.3 °F 79% 29.69 in 10.0 mi South 18.4 mph 25.3 mph N/A   Clear
9:15 PM 53.4 °F - 47.1 °F 79% 29.68 in 10.0 mi South 20.7 mph 31.1 mph N/A   Scattered Clouds
9:35 PM 53.6 °F - 47.1 °F 79% 29.69 in 10.0 mi South 18.4 mph 28.8 mph N/A   Scattered Clouds
9:55 PM 53.2 °F - 46.9 °F 79% 29.70 in 10.0 mi South 23.0 mph 29.9 mph 0.01 in   Clear
10:15 PM 52.9 °F - 46.8 °F 80% 29.70 in 10.0 mi South 18.4 mph 27.6 mph N/A   Clear
10:35 PM 53.1 °F - 46.9 °F 80% 29.70 in 10.0 mi South 16.1 mph 27.6 mph N/A   Clear
10:55 PM 53.1 °F - 46.9 °F 80% 29.71 in 10.0 mi South 16.1 mph 25.3 mph N/A   Clear
11:15 PM 53.6 °F - 46.4 °F 77% 29.71 in 10.0 mi South 16.1 mph 25.3 mph N/A   Clear
11:35 PM 53.1 °F - 46.8 °F 79% 29.72 in 10.0 mi South 17.3 mph 25.3 mph N/A   Clear
11:55 PM 52.9 °F - 46.8 °F 80% 29.72 in 10.0 mi South 17.3 mph 25.3 mph N/A   Clear